Location: Unspecified
(58.9933°N, 5.6375°E)
Time: 22:59:05
(UTC+02:00)

Okean 3 - Visible Passes

Search period start: 26 April 2015 00:00
Search period end: 06 May 2015 00:00
Orbit: 581 x 605 km, 82.5° (Epoch: 26 April)

Date Brightness Start Highest point End Pass type
(mag) Time Alt. Az. Time Alt. Az. Time Alt. Az.
26 Apr 5.8 00:22:12 10° WSW 00:25:37 22° WNW 00:29:01 10° N visible
26 Apr 3.5 22:52:46 10° SSW 22:57:01 85° WNW 23:01:21 10° NNE visible
27 Apr 6.2 00:32:07 10° W 00:35:07 18° NW 00:38:02 10° N visible
27 Apr 4.0 23:02:05 10° SSW 23:06:19 63° WNW 23:10:35 10° N visible
28 Apr 6.3 00:42:15 10° W 00:44:38 14° NW 00:46:56 10° NNW visible
28 Apr 4.6 23:11:31 10° SW 23:15:38 46° WNW 23:19:48 10° N visible
29 Apr 6.6 00:52:44 10° WNW 00:54:11 11° NW 00:55:31 10° NNW visible
29 Apr 5.2 23:21:04 10° SW 23:25:00 35° WNW 23:28:58 10° N visible
30 Apr 5.7 23:30:43 10° WSW 23:34:24 27° WNW 23:38:05 10° N visible
01 May 6.1 23:40:30 10° WSW 23:43:51 21° WNW 23:47:09 10° N visible
02 May 6.4 23:50:27 10° W 23:53:19 17° NW 23:56:08 10° NNW visible
03 May 4.2 22:20:13 10° SSW 22:24:27 58° WNW 22:28:44 10° N visible
04 May 6.6 00:00:36 10° W 00:02:50 14° NW 00:04:58 10° NNW visible
04 May 4.9 22:29:40 10° SW 22:33:46 43° WNW 22:37:55 10° N visible
05 May 6.9 00:11:13 10° WNW 00:12:23 11° NW 00:13:24 10° NNW visible
05 May 5.5 22:39:13 10° SW 22:43:07 33° WNW 22:47:03 10° N visible
